Home   Weather   Mamoutzou   Past weeks
Flag for Mayotte

Past Weather in Mamoutzou, Mayotte — Yesterday and Last 2 Weeks

Now
86 °F

Partly sunny.


Feels Like: 99 °F
Forecast: 85 / 82 °F
Wind: 23 mph from Southeast

Location: Dzaoudzi / Pamanzi Mayotte

Current Time: Apr 24, 2019 at 9:40:28 am

Latest Report: Apr 24, 2019 at 9:00 am


Visibility: N/A

Pressure: 29.80 "Hg

Humidity: 79%

Dew Point: 79 °F

Location of MamoutzouLocation

Past Weather in Mamoutzou — Graph

°F

Mamoutzou Temperature Yesterday

Maximum temperature yesterday: 91 °F (at 11:30 am)
Minimum temperature yesterday: 84 °F (at 12:00 am)
Average temperature yesterday: 86 °F

High & Low Weather Summary for the Past Weeks

 TemperatureHumidityPressure
High91 °F (Apr 14, 11:00 am)100% (Apr 10, 6:00 am)29.95 "Hg (Apr 10, 6:00 am)
Low77 °F (Apr 10, 6:00 am)59% (Apr 14, 2:30 pm)29.74 "Hg (Apr 21, 3:00 pm)
Average85 °F83%29.85 "Hg
* Reported Apr 9 8:00 am — Apr 24 8:00 am, Mamoutzou. Weather by CustomWeather, © 2019

Note: Actual official high and low records may vary slightly from our data, if they occured in-between our weather recording intervals... More about our weather records

Advertising

Mamoutzou Weather History for the Previous 24 Hours

Scroll right to see more
 ConditionsComfort  
Time TempWeatherWind HumidityBarometerVisibility
8:00 am
Wed, Apr 24
84 °FMore clouds than sun.20 mph79%29.80 "HgN/A
7:30 am84 °FOvercast.23 mph79%29.80 "HgN/A
7:00 am84 °FBroken clouds.23 mph79%29.80 "HgN/A
6:30 am84 °FBroken clouds.24 mph84%29.77 "HgN/A
6:00 am86 °FMostly cloudy.22 mph79%29.77 "HgN/A
5:30 am84 °FPassing clouds.16 mph84%29.77 "HgN/A
5:00 am84 °FPartly cloudy.17 mph84%29.74 "HgN/A
4:30 am82 °FPartly cloudy.13 mph94%29.77 "HgN/A
4:00 am82 °FPassing clouds.9 mph94%29.74 "HgN/A
3:30 am81 °FPassing clouds.8 mph94%29.74 "HgN/A
3:00 am81 °FWarm.14 mph94%29.74 "HgN/A
2:30 am79 °FLight rain. Partly cloudy.16 mph94%29.74 "Hg5 mi
2:00 am79 °FThundershowers. Partly cloudy.15 mph94%29.77 "HgN/A
1:30 am79 °FStrong thunderstorms. Fog.18 mph94%29.77 "Hg1 mi
1:00 am84 °FStrong thunderstorms. Partly cloudy.18 mph94%29.77 "HgN/A
12:00 am84 °FThunderstorms. Mostly cloudy.21 mph94%29.80 "HgN/A
11:30 pm
Tue, Apr 23
84 °FPartly cloudy.23 mph89%29.80 "HgN/A
11:00 pm84 °FThundershowers. Passing clouds.22 mph89%29.80 "HgN/A
10:30 pm84 °FPassing clouds.20 mph89%29.80 "HgN/A
10:00 pm84 °FPartly cloudy.20 mph89%29.80 "HgN/A
9:30 pm84 °FPassing clouds.20 mph89%29.80 "HgN/A
9:00 pm84 °FClear.20 mph89%29.83 "Hg10 mi
8:30 pm84 °FClear.18 mph84%29.80 "Hg10 mi
8:00 pm84 °FMostly cloudy.21 mph84%29.80 "HgN/A
7:30 pm84 °FMostly cloudy.21 mph89%29.80 "HgN/A
7:00 pm84 °FPassing clouds.21 mph84%29.77 "HgN/A
6:30 pm84 °FPassing clouds.20 mph84%29.77 "HgN/A
6:00 pm86 °FMostly cloudy.20 mph79%29.77 "HgN/A
5:30 pm86 °FMostly cloudy.20 mph84%29.77 "HgN/A
5:00 pm86 °FBroken clouds.21 mph84%29.77 "HgN/A
4:30 pm86 °FBroken clouds.20 mph79%29.77 "HgN/A
4:00 pm88 °FBroken clouds.20 mph79%29.77 "HgN/A
3:30 pm88 °FPartly sunny.21 mph79%29.74 "HgN/A
3:00 pm88 °FScattered clouds.21 mph75%29.74 "HgN/A
2:30 pm88 °FPartly sunny.21 mph79%29.74 "HgN/A
2:00 pm90 °FPassing clouds.16 mph75%29.74 "HgN/A
1:30 pm88 °FPassing clouds.15 mph75%29.77 "HgN/A
1:00 pm90 °FSunny.16 mph71%29.77 "Hg10 mi
12:30 pm90 °FPassing clouds.16 mph71%29.77 "HgN/A
12:00 pm90 °FPassing clouds.18 mph71%29.80 "HgN/A
11:30 am91 °FPartly sunny.17 mph71%29.80 "HgN/A
11:00 am88 °FPartly sunny.20 mph75%29.80 "HgN/A
10:30 am88 °FScattered clouds.20 mph84%29.83 "HgN/A
10:00 am86 °FPartly sunny.20 mph89%29.83 "HgN/A
9:30 am88 °FPartly sunny.21 mph79%29.83 "HgN/A
9:00 am88 °FPartly sunny.21 mph79%29.83 "HgN/A
Weather by CustomWeather, © 2019

See weather overview